Las Vegas, NV

11:45 AM PST on February 23, 2017 (GMT -0800)
North Las Vegas

Weather History for KVGT - March, 2013

Change the Weather History Date:

Sunday, March 31, 2013

  Actual Average Record
Temperature  
Mean Temperature 68 °F 62 °F  
Max Temperature 80 °F 74 °F 90 °F (2015)
Min Temperature 57 °F 51 °F 42 °F (2009)
Degree Days  
Heating Degree Days 0 4  
Month to date heating degree days 216  
Since 1 July heating degree days 1976  
Cooling Degree Days 4 1  
Month to date cooling degree days 22  
Year to date cooling degree days 22  
Growing Degree Days 18 (Base 50)    
Moisture  
Dew Point 32 °F    
Average Humidity 27    
Maximum Humidity 40    
Minimum Humidity 12    
Precipitation  
Precipitation 0.00 in 0.01 in 0.92 in (1992)
Month to date precipitation 0.57  
Year to date precipitation 2.15  
Sea Level Pressure  
Sea Level Pressure 29.92 in    
Wind  
Wind Speed 8 mph (WSW)    
Max Wind Speed 22 mph    
Max Gust Speed 34 mph    
Visibility 10 miles    
Events      
T = Trace of Precipitation, MM = Missing Value Source: NWS Daily Summary

Daily Weather History Graph

Daily Weather History Graph

Search for Another Location

Airport or City:

Trip Planner

Search our weather history database for the weather conditions in past years. The results will help you decide how hot, cold, wet, or windy it might be!

Date:

Astronomy

Mar. 31, 2013 Rise Set
Actual Time 6:27 AM PDT 7:02 PM PDT
Civil Twilight 6:02 AM PDT 7:28 PM PDT
Nautical Twilight 5:31 AM PDT 7:58 PM PDT
Astronomical Twilight 5:00 AM PDT 8:29 PM PDT
Moon No Moon Rise 9:27 AM PDT (3/31)
Length of Visible Light 13h 26m
Length of Day
12h 34m
Waning Gibbous, 76% of the Moon is Illuminated
Mar 31
Waning Gibbous
Apr 2
Last Quarter
Apr 10
New
Apr 18
First Quarter
Apr 25
Full

Hourly Weather History & Observations

Time (PDT) Temp. Dew Point Humidity Pressure Visibility Wind Dir Wind Speed Gust Speed Precip Events Conditions
12:53 AM 63.0 °F 33.1 °F 33% 29.96 in 10.0 mi NNW 3.5 mph - N/A   Clear
1:53 AM 61.0 °F 35.1 °F 38% 29.96 in 10.0 mi Calm Calm - N/A   Clear
2:53 AM 60.1 °F 33.1 °F 36% 29.95 in 10.0 mi NNW 4.6 mph - N/A   Clear
3:53 AM 59.0 °F 33.1 °F 38% 29.95 in 10.0 mi Calm Calm - N/A   Clear
4:53 AM 57.9 °F 33.1 °F 39% 29.95 in 10.0 mi NW 3.5 mph - N/A   Clear
5:53 AM 57.0 °F 32.0 °F 39% 29.95 in 10.0 mi NW 4.6 mph - N/A   Clear
6:53 AM 57.0 °F 33.1 °F 40% 29.97 in 10.0 mi Calm Calm - N/A   Clear
7:53 AM 60.1 °F 34.0 °F 38% 29.98 in 10.0 mi Calm Calm - N/A   Clear
8:53 AM 66.0 °F 33.1 °F 29% 29.98 in 10.0 mi ESE 3.5 mph - N/A   Clear
9:53 AM 70.0 °F 34.0 °F 27% 29.98 in 10.0 mi SE 6.9 mph - N/A   Clear
10:53 AM 75.9 °F 34.0 °F 22% 29.97 in 10.0 mi South 15.0 mph - N/A   Clear
11:53 AM 77.0 °F 33.1 °F 20% 29.96 in 10.0 mi South 12.7 mph - N/A   Clear
12:53 PM 79.0 °F 34.0 °F 20% 29.94 in 10.0 mi SSW 20.7 mph 27.6 mph N/A   Clear
1:53 PM 79.0 °F 34.0 °F 20% 29.91 in 10.0 mi SSW 19.6 mph 34.5 mph N/A   Clear
2:53 PM 80.1 °F 30.0 °F 16% 29.88 in 10.0 mi SSW 19.6 mph 26.5 mph N/A   Clear
3:53 PM 80.1 °F 27.0 °F 14% 29.86 in 10.0 mi SW 21.9 mph - N/A   Clear
4:53 PM 79.0 °F 21.0 °F 12% 29.86 in 10.0 mi WSW 19.6 mph - N/A   Clear
5:53 PM 77.0 °F 21.9 °F 13% 29.84 in 10.0 mi WSW 18.4 mph 26.5 mph N/A   Clear
6:53 PM 75.2 °F 28.4 °F 18% 29.82 in 10.0 mi WSW 16.1 mph - N/A   Clear
7:53 PM 71.6 °F 30.2 °F 22% 29.83 in 10.0 mi WSW 17.3 mph - N/A   Clear
8:53 PM 70.0 °F 33.1 °F 26% 29.87 in 10.0 mi SW 8.1 mph - N/A   Clear
9:53 PM 69.1 °F 36.0 °F 30% 29.88 in 10.0 mi West 12.7 mph - N/A   Clear
10:53 PM 66.2 °F 35.6 °F 32% 29.88 in 10.0 mi WSW 17.3 mph 25.3 mph N/A   Clear
11:53 PM 66.0 °F 36.0 °F 33% 29.87 in 10.0 mi WSW 18.4 mph 25.3 mph N/A   Clear